Location: *
(49.9853°N, 3.5569°E)
Time: 01:23:38
(UTC+00:00)

CZ-2C R/B - Pass Details

Date: 22 September 2019
Orbit: 785 x 870 km, 98.3° (Epoch: 13 October)

Event Time Altitude Azimuth Distance (km) Brightness Sun altitude
Rises 20:55:40 0° 14° (NNE) 3,441 6.2 -29.0°
Reaches altitude 10° 20:58:02 10° 15° (NNE) 2,509 5.4 -29.3°
Enters shadow 21:02:34 60° 18° (NNE) 987 3.0 -29.8°
